Home > Weather > Wood Buffalo > Past weeks

Flag for Canada Weather for the Past 2 Weeks in Wood Buffalo, Alberta, Canada

Now
3 °F

Overcast.


Feels Like: -10 °F
Forecast: 0 / 11 °F
Wind: 8 mph from East

Location: Fort Mcmurray

Current Time: Feb 11, 2016 at 7:17:24 AM

Latest Report: Feb 11, 2016 at 6:00 AM


Visibility: 9 mi

Pressure: 30.45 "Hg

Humidity: 78%

Dew point: -2 °F

Location of Wood BuffaloLocation

Historic Weather in Wood Buffalo — Graph

°F

Wood Buffalo Temperature Yesterday

Maximum temperature yesterday: 12 °F (at 12:00 AM)
Minimum temperature yesterday: 5 °F (at 7:51 AM)
Average temperature yesterday: 7 °F

High & Low Weather Summary for the Past Weeks

 TemperatureHumidityPressure
High41 °F (Jan 27, 2:00 PM)100% (Jan 27, 8:00 PM)30.50 "Hg (Jan 27, 8:00 PM)
Low-4 °F (Feb 7, 8:00 AM)53% (Jan 27, 2:00 PM)29.13 "Hg (Jan 29, 2:00 AM)
Average16 °F86%29.95 "Hg
* Reported Jan 27 6:00 AM — Feb 11 6:00 AM, Wood Buffalo, Weather by CustomWeather, © 2016

Note: Actual official high and low records may vary slightly from our data, if they occured in-between our weather recording intervals... More about our weather records

Advertising

Wood Buffalo Weather History for the Previous 24 Hours

 ConditionsComfort  
Time TempWeatherWind HumidityBarometerVisibility
6:00 AM
Thu, Feb 11
3 °FOvercast.8 mph78%30.45 "Hg9 mi
5:00 AM3 °FOvercast.7 mph78%30.43 "Hg9 mi
4:00 AM3 °FOvercast.8 mph85%30.42 "Hg9 mi
3:00 AM3 °FOvercast.7 mph85%30.42 "Hg9 mi
2:00 AM3 °FMostly cloudy.5 mph85%30.41 "Hg9 mi
1:00 AM3 °FPassing clouds.8 mph85%30.40 "Hg9 mi
12:00 AM5 °FPassing clouds.9 mph85%30.41 "Hg9 mi
11:00 PM
Wed, Feb 10
5 °FPartly cloudy.7 mph85%30.42 "Hg9 mi
10:00 PM7 °FOvercast.7 mph85%30.44 "Hg9 mi
9:00 PM7 °FMostly cloudy.5 mph85%30.45 "Hg9 mi
8:00 PM7 °FOvercast.6 mph85%30.45 "Hg9 mi
7:00 PM7 °FOvercast.6 mph85%30.45 "Hg9 mi
6:00 PM7 °FOvercast.3 mph85%30.46 "Hg9 mi
5:00 PM7 °FMostly cloudy.2 mph85%30.47 "Hg9 mi
4:00 PM9 °FPartly sunny.3 mph78%30.46 "Hg9 mi
3:00 PM9 °FMostly cloudy.3 mph78%30.47 "Hg9 mi
2:00 PM9 °FOvercast.2 mph78%30.47 "Hg9 mi
1:00 PM7 °FOvercast.6 mph85%30.47 "Hg9 mi
12:04 PM7 °FLight snow. Overcast.6 mph85%30.50 "Hg9 mi
11:00 AM5 °FLight snow. Overcast.5 mph85%30.50 "Hg9 mi
10:49 AM5 °FLight snow. Overcast.6 mph85%30.50 "Hg9 mi
10:00 AM5 °FLight snow. Overcast.7 mph85%30.48 "Hg9 mi
9:55 AM5 °FLight snow. Overcast.6 mph85%30.48 "Hg9 mi
9:00 AM5 °FLight snow. Overcast.7 mph92%30.46 "Hg9 mi
8:56 AM5 °FLight snow. Overcast.7 mph92%30.46 "Hg9 mi
8:02 AM5 °FLight snow. Overcast.8 mph92%30.45 "Hg9 mi
8:00 AM5 °FOvercast.8 mph92%30.45 "Hg9 mi
7:51 AM5 °FOvercast.7 mph92%30.44 "Hg9 mi
7:00 AM7 °FLight snow. Overcast.7 mph85%30.42 "Hg9 mi
Weather by CustomWeather, © 2016

See weather overviewHow to use our weather pages